#timestamp,LO_Frequency,Hit,StdDev 
1511816415.1,286046992.3,N
1511816416.0,286046992.3,N
1511816435.8,286046993.3,N
1511816455.6,286046993.5,N
1511816475.5,286046992.3,N
1511816495.3,286046988.5,N
1511816515.1,286046989.4,N
1511816535.9,286046987.5,N
1511816555.7,286046989.0,N
1511816575.5,286046989.9,N
1511816595.3,286046988.8,N
1511816615.2,286046994.6,N
1511816635.0,286046993.6,N
1511816635.9,286046993.6,N
1511816655.7,286046993.4,N
1511816675.6,286046992.4,N
1511816695.4,286046989.0,N
1511816715.2,286046990.4,N
1511816735.1,286046990.8,N
1511816736.0,286046990.8,Y
1511816755.8,286047000.0,P
1511816775.6,286047000.8,N
1511816795.5,286046999.8,N
1511816815.3,286047000.6,N
1511816835.1,286047005.4,N
1511816855.9,286047003.1,N
1511816875.7,286047003.8,N
1511816895.5,286047007.0,N
1511816915.4,286047006.8,N
1511816935.2,286047002.3,N
1511816955.0,286047004.2,N
1511816955.9,286047004.2,N
1511816975.8,286047005.9,N
1511816995.6,286047003.5,N
1511817015.4,286047005.7,N
1511817035.2,286047003.3,N
1511817055.1,286047004.6,N
1511817056.0,286047004.6,N
1511817075.8,286047004.5,N
1511817095.6,286047001.4,N
1511817115.5,286046999.5,N
1511817135.3,286046997.3,N
1511817155.1,286046995.8,N
1511817175.9,286046997.6,N
1511817195.7,286046997.0,N
1511817215.5,286047000.7,N
1511817235.4,286047000.4,N
1511817255.2,286046998.7,N
1511817275.0,286046993.9,N
1511817275.9,286046993.9,N
1511817295.8,286046989.0,Y
1511817315.6,286046987.2,P
1511817335.4,286046985.3,N
1511817355.3,286046985.7,N
1511817375.1,286046984.0,N
1511817376.0,286046984.0,N
1511817395.8,286046987.9,N
1511817415.7,286046984.7,N
1511817435.5,286046982.2,Y
1511817455.3,286046998.0,P
1511817475.2,286046995.1,N
1511817495.9,286046995.5,N
1511817515.7,286046996.9,N
1511817535.5,286046997.5,N
1511817555.4,286046996.3,N
1511817575.2,286046998.1,N
1511817595.0,286047000.3,N
1511817595.9,286047000.3,N
1511817615.8,286047001.1,N
1511817635.6,286047000.9,N
1511817655.4,286047003.1,N
1511817675.3,286047003.8,N
1511817695.1,286047005.6,N
1511817696.0,286047005.6,N
1511817715.8,286047002.2,N
1511817735.7,286047004.0,N
1511817755.5,286047007.0,N
1511817775.3,286047006.0,N
1511817795.2,286047007.3,N
1511817815.9,286047003.0,N
1511817835.7,286047001.5,N
1511817855.5,286047004.1,N
1511817875.4,286047005.4,N
1511817895.2,286047004.1,N
1511817915.0,286047005.0,N
1511817915.9,286047005.0,N
1511817935.8,286047004.8,N
1511817955.6,286047003.6,N
1511817975.4,286047001.2,N
1511817995.3,286046999.1,N
1511818015.1,286046998.7,N
1511818016.0,286046998.7,N
1511818035.8,286046996.5,N
1511818055.7,286047001.0,N
1511818075.5,286047000.3,N
1511818095.3,286047001.0,N
1511818115.2,286047000.4,N
1511818135.9,286047000.9,N
1511818155.7,286047000.6,N
1511818175.5,286046996.9,N
1511818195.4,286046998.3,N
1511818215.2,286046999.0,N
1511818235.0,286047000.0,N
1511818235.9,286047000.0,N
1511818255.8,286047003.7,N
1511818275.6,286047003.5,N
1511818295.4,286047004.2,N
1511818315.3,286047005.3,N
1511818335.1,286046999.7,N
1511818355.8,286046997.1,N
1511818375.7,286046996.6,N
1511818395.5,286046993.3,N
1511818415.3,286046995.5,N
1511818435.2,286046990.1,Y
1511818455.9,286046985.4,P
1511818475.7,286046987.2,N
1511818495.6,286046990.0,N
1511818515.4,286046986.1,N
1511818535.2,286046987.1,N
1511818555.1,286046989.5,N
1511818556.0,286046989.5,N
1511818575.8,286046987.3,N
1511818595.6,286046989.2,N
1511818615.4,286046988.0,N
1511818635.3,286046985.7,Y
1511818655.1,286046995.2,P
1511818675.9,286046996.3,N
1511818695.7,286046997.5,N
1511818715.5,286046996.8,N
1511818735.3,286046994.3,N
1511818755.2,286046991.9,N
1511818775.0,286046990.1,Y
1511818775.9,286046990.1,P
1511818795.7,286047001.0,N
1511818815.6,286046998.9,N
1511818835.4,286046997.5,N
1511818855.2,286046993.6,N
1511818875.1,286046992.0,N
1511818876.0,286046992.0,N
1511818895.8,286046994.7,N
1511818915.6,286046999.6,N
1511818935.5,286046998.4,N
1511818955.3,286046999.4,N
1511818975.1,286046999.5,N
1511818995.9,286046997.2,N
1511819015.7,286046999.3,N
1511819035.5,286047000.2,N
1511819055.3,286046995.6,N
1511819075.2,286046998.9,N
1511819095.0,286047003.8,N
1511819095.9,286047003.8,N
1511819115.7,286047004.7,N
1511819135.6,286047005.5,N
1511819155.4,286047003.0,N
1511819175.2,286047004.8,N
1511819195.1,286047007.0,N
1511819196.0,286047007.0,N
1511819215.8,286047010.6,N
1511819235.6,286047008.8,N
1511819255.5,286047011.7,N
1511819275.3,286047015.5,N
1511819295.1,286047014.6,N
1511819315.9,286047013.9,N
1511819335.7,286047012.7,N
1511819355.5,286047014.2,N
1511819375.4,286047014.1,N
1511819395.2,286047019.3,N
1511819415.0,286047024.8,Y
1511819415.9,286047024.8,P
1511819435.8,286047015.0,N
1511819455.6,286047014.4,N
1511819475.4,286047014.7,N
1511819495.3,286047016.6,N
1511819515.1,286047013.0,N
1511819516.0,286047013.0,N
1511819535.8,286047010.5,N
1511819555.6,286047009.3,N
1511819575.5,286047012.0,N
1511819595.3,286047011.2,N
1511819615.1,286047008.5,N
1511819635.9,286047012.4,N
1511819655.7,286047008.0,N
1511819675.5,286047007.7,N
1511819695.4,286047006.9,N
1511819715.2,286047006.9,N
1511819735.0,286047009.7,N
1511819735.9,286047009.7,N
1511819755.8,286047008.0,N
1511819775.6,286047008.0,N
1511819795.4,286047008.5,N
1511819815.3,286047008.3,N
1511819835.1,286047013.9,Y
1511819836.0,286047013.9,P
1511819855.8,286047001.4,N
1511819875.7,286047006.0,N
1511819895.5,286047001.3,N
1511819915.3,286046999.9,N
1511819935.2,286047003.6,N
1511819955.9,286047002.3,N
1511819975.7,286047004.3,N
1511819995.5,286047002.7,N
